Terug naar catalogus

ATLAS CENTAUR R/B

ActiefMEO
NORAD 43341·ROCKET BODY·🇺🇸 United States

Gelanceerd Apr 14, 2018 vanaf Cape Canaveral Space Force Station

Loading…

Volgende Passages (komende 24 uur)

TLE

VersSource: Space-Track

Epoch: Sep 13, 2026, 19:48 UTC

1 43341U 18036C   26256.82535722 -.00000140  00000-0  00000-0 0  9994
2 43341   6.9024  63.0770 0443914 209.7282 147.8515  1.08308769 27749

Volg ATLAS CENTAUR R/B in realtime met AllMySat

Download on the App Store